Zurück zum Katalog

STARLINK-34077

AktivKommunikationVLEO
NORAD 64009·PAYLOAD·🇺🇸 United States

Gestartet May 14, 2025 von Cape Canaveral Space Force Station

Loading…

Nächste Überflüge (nächste 24 Stunden)

TLE

AktuellSource: CelesTrak SupGP

Epoche: Sep 15, 2026, 02:44 UTC

1 64009C 25101R   26258.11437500  .00017103  00000+0  61948-3 0  2582
2 64009  43.0036   7.9514 0001259 267.5674 250.9342 15.27570666    18

Verfolge STARLINK-34077 in Echtzeit mit AllMySat

Download on the App Store